Weather History for Brunswick, GA

Change the Weather History Date:

Thursday, August 14, 2014

  Actual Average Record
Temperature  
Mean Temperature 82 °F -  
Max Temperature 89 °F 89 °F 116 °F (1998)
Min Temperature 75 °F 72 °F 17 °F (1998)
Cooling Degree Days 17    
Growing Degree Days 32 (Base 50)    
Moisture  
Dew Point 73 °F    
Average Humidity 77    
Maximum Humidity 89    
Minimum Humidity 52    
Precipitation  
Precipitation 0.00 in - - ()
Sea Level Pressure  
Sea Level Pressure 29.98 in    
Wind  
Wind Speed 3 mph (SW)    
Max Wind Speed 8 mph    
Max Gust Speed -    
Visibility 9 miles    
Events Thunderstorm    
Averages and records for this station are not official NWS values.
T = Trace of Precipitation, MM = Missing Value Source: NWS Daily Summary

Daily Weather History Graph

Daily Weather History Graph

Search for Another Location

Airport:

Trip Planner

Search our weather history database for the weather conditions in past years. The results will help you decide how hot, cold, wet, or windy it might be!

Date:

Astronomy

Aug. 14, 2014 Rise Set
Actual Time 6:50 AM EDT 8:09 PM EDT
Civil Twilight 6:25 AM EDT 8:35 PM EDT
Nautical Twilight 5:54 AM EDT 9:05 PM EDT
Astronomical Twilight 5:23 AM EDT 9:37 PM EDT
Moon 10:54 PM EDT (8/14) 11:05 AM EDT (8/14)
Length of Visible Light 14h 09m
Length of Day
13h 18m
Waning Gibbous, 79% of the Moon is Illuminated
Aug 14
Waning Gibbous
Aug 17
Last Quarter
Aug 25
New
Sep 2
First Quarter
Sep 8
Full

Hourly Weather History & Observations

Time (EDT) Temp. Heat Index Dew Point Humidity Pressure Visibility Wind Dir Wind Speed Gust Speed Precip Events Conditions
12:15 AM 78.8 °F - 73.4 °F 83% 29.97 in 10.0 mi Calm Calm - N/A   Clear
12:35 AM 77.0 °F - 73.4 °F 89% 29.97 in 10.0 mi Calm Calm - N/A   Clear
12:55 AM 77.0 °F - 73.4 °F 89% 29.97 in 10.0 mi WSW 4.6 mph - N/A   Clear
1:15 AM 77.0 °F - 73.4 °F 89% 29.97 in 10.0 mi WSW 4.6 mph - N/A   Clear
1:35 AM 77.0 °F - 73.4 °F 89% 29.97 in 10.0 mi WSW 4.6 mph - N/A   Clear
1:55 AM 77.0 °F - 73.4 °F 89% 29.97 in 10.0 mi SW 3.5 mph - N/A   Clear
2:15 AM 77.0 °F - 73.4 °F 89% 29.96 in 10.0 mi WSW 3.5 mph - N/A   Clear
2:35 AM 77.0 °F - 73.4 °F 89% 29.96 in 10.0 mi WSW 3.5 mph - N/A   Mostly Cloudy
2:55 AM 77.0 °F - 73.4 °F 89% 29.96 in 10.0 mi SW 3.5 mph - N/A   Overcast
3:15 AM 77.0 °F - 73.4 °F 89% 29.96 in 10.0 mi Calm Calm - N/A   Overcast
3:35 AM 78.8 °F - 73.4 °F 83% 29.96 in 10.0 mi SSW 3.5 mph - N/A   Overcast
3:55 AM 78.8 °F - 73.4 °F 83% 29.96 in 10.0 mi SW 3.5 mph - N/A   Overcast
4:15 AM 78.8 °F - 73.4 °F 83% 29.95 in 10.0 mi WSW 5.8 mph - N/A   Overcast
4:35 AM 77.0 °F - 73.4 °F 89% 29.95 in 10.0 mi SW 4.6 mph - N/A   Overcast
4:55 AM 77.0 °F - 73.4 °F 89% 29.95 in 10.0 mi WSW 4.6 mph - N/A   Overcast
5:15 AM 77.0 °F - 73.4 °F 89% 29.95 in 10.0 mi WSW 5.8 mph - N/A   Overcast
5:35 AM 77.0 °F - 73.4 °F 89% 29.96 in 10.0 mi WSW 3.5 mph - N/A   Overcast
5:55 AM 77.0 °F - 73.4 °F 89% 29.96 in 7.0 mi WSW 4.6 mph - N/A   Overcast
6:15 AM 77.0 °F - 73.4 °F 89% 29.96 in 5.0 mi WSW 4.6 mph - N/A   Overcast
6:35 AM 77.0 °F - 73.4 °F 89% 29.97 in 3.0 mi WSW 5.8 mph - N/A   Overcast
6:55 AM 77.0 °F - 73.4 °F 89% 29.97 in 2.0 mi WSW 5.8 mph - N/A   Overcast
7:15 AM 77.0 °F - 73.4 °F 89% 29.98 in 2.0 mi WSW 3.5 mph - N/A   Overcast
7:35 AM 77.0 °F - 73.4 °F 89% 29.98 in 3.0 mi Calm Calm - N/A   Overcast
7:55 AM 77.0 °F - 73.4 °F 89% 29.98 in 4.0 mi SW 3.5 mph - N/A   Overcast
8:15 AM 77.0 °F - 73.4 °F 89% 29.99 in 7.0 mi Calm Calm - N/A   Overcast
8:35 AM 77.0 °F - 73.4 °F 89% 29.99 in 10.0 mi Calm Calm - N/A   Overcast
8:55 AM 78.8 °F - 73.4 °F 83% 29.99 in 10.0 mi Calm Calm - N/A   Overcast
9:15 AM 78.8 °F - 73.4 °F 83% 29.99 in 10.0 mi WNW 3.5 mph - N/A   Overcast
9:35 AM 80.6 °F 85.4 °F 73.4 °F 79% 30.00 in 10.0 mi West 3.5 mph - N/A   Mostly Cloudy
9:55 AM 80.6 °F 85.4 °F 73.4 °F 79% 30.00 in 10.0 mi Calm Calm - N/A   Mostly Cloudy
10:15 AM 82.4 °F 88.2 °F 73.4 °F 74% 30.01 in 10.0 mi WSW 4.6 mph - N/A   Scattered Clouds
10:35 AM 82.4 °F 87.2 °F 71.6 °F 70% 30.02 in 10.0 mi Calm Calm - N/A   Unknown
10:55 AM 84.2 °F 90.9 °F 73.4 °F 70% 30.02 in 10.0 mi Calm Calm - N/A   Scattered Clouds
11:15 AM 86.0 °F 93.4 °F 73.4 °F 66% 30.02 in 10.0 mi Calm Calm - N/A   Scattered Clouds
11:35 AM 86.0 °F 93.4 °F 73.4 °F 66% 30.02 in 10.0 mi Calm Calm - N/A   Clear
11:55 AM 86.0 °F 93.4 °F 73.4 °F 66% 30.02 in 10.0 mi NW 4.6 mph - N/A   Scattered Clouds
12:15 PM 86.0 °F 93.4 °F 73.4 °F 66% 30.01 in 10.0 mi Calm Calm - N/A   Scattered Clouds
12:35 PM 86.0 °F 93.4 °F 73.4 °F 66% 30.01 in 10.0 mi Calm Calm - N/A   Mostly Cloudy
12:55 PM 87.8 °F 95.6 °F 73.4 °F 62% 30.00 in 10.0 mi Calm Calm - N/A   Mostly Cloudy
1:15 PM 87.8 °F 95.6 °F 73.4 °F 62% 30.00 in 10.0 mi Calm Calm - N/A   Overcast
1:35 PM 89.6 °F 98.2 °F 73.4 °F 59% 29.99 in 10.0 mi Calm Calm - N/A   Mostly Cloudy
1:55 PM 87.8 °F 95.6 °F 73.4 °F 62% 29.98 in 10.0 mi North 3.5 mph - N/A   Scattered Clouds
2:15 PM 87.8 °F 95.6 °F 73.4 °F 62% 29.97 in 10.0 mi North 5.8 mph - N/A   Scattered Clouds
2:35 PM 87.8 °F 95.6 °F 73.4 °F 62% 29.96 in 10.0 mi North 4.6 mph - N/A Thunderstorm Scattered Clouds
2:55 PM 87.8 °F 91.4 °F 68.0 °F 52% 29.98 in 10.0 mi North 4.6 mph - N/A Thunderstorm Scattered Clouds
3:15 PM 86.0 °F 93.4 °F 73.4 °F 66% 29.96 in 10.0 mi Calm Calm - N/A Thunderstorm Clear
3:35 PM 86.0 °F 95.1 °F 75.2 °F 70% 29.96 in 10.0 mi Calm Calm - N/A Thunderstorm Clear
3:55 PM 86.0 °F 93.4 °F 73.4 °F 66% 29.97 in 10.0 mi ENE 5.8 mph - N/A Thunderstorm Clear
4:15 PM 86.0 °F 93.4 °F 73.4 °F 66% 29.97 in 10.0 mi East 6.9 mph - N/A   Clear
4:35 PM 87.8 °F 97.6 °F 75.2 °F 66% 29.96 in 10.0 mi East 8.1 mph - N/A   Clear
4:55 PM 87.8 °F 95.6 °F 73.4 °F 62% 29.95 in 10.0 mi ESE 6.9 mph - N/A   Scattered Clouds
5:15 PM 87.8 °F 95.6 °F 73.4 °F 62% 29.95 in 10.0 mi SE 4.6 mph - N/A   Scattered Clouds
5:35 PM 86.0 °F 93.4 °F 73.4 °F 66% 29.95 in 10.0 mi East 5.8 mph - N/A   Scattered Clouds
5:55 PM 86.0 °F 93.4 °F 73.4 °F 66% 29.95 in 10.0 mi ESE 5.8 mph - N/A   Scattered Clouds
6:15 PM 86.0 °F 93.4 °F 73.4 °F 66% 29.95 in 10.0 mi SE 8.1 mph - N/A   Mostly Cloudy
6:35 PM 86.0 °F 93.4 °F 73.4 °F 66% 29.95 in 10.0 mi SE 5.8 mph - N/A   Mostly Cloudy
6:55 PM 86.0 °F 93.4 °F 73.4 °F 66% 29.95 in 10.0 mi ESE 5.8 mph - N/A   Scattered Clouds
7:15 PM 84.2 °F 92.3 °F 75.2 °F 74% 29.95 in 10.0 mi SSE 5.8 mph - N/A   Scattered Clouds
7:35 PM 84.2 °F 92.3 °F 75.2 °F 74% 29.96 in 10.0 mi South 5.8 mph - N/A   Scattered Clouds
7:55 PM 82.4 °F 89.5 °F 75.2 °F 79% 29.97 in 10.0 mi SE 3.5 mph - N/A   Clear
8:15 PM 82.4 °F 89.5 °F 75.2 °F 79% 29.98 in 10.0 mi SSE 4.6 mph - N/A   Mostly Cloudy
8:35 PM 82.4 °F 88.2 °F 73.4 °F 74% 29.98 in 10.0 mi SSE 5.8 mph - N/A   Scattered Clouds
8:55 PM 82.4 °F 87.2 °F 71.6 °F 70% 29.98 in 10.0 mi South 6.9 mph - N/A   Clear
9:15 PM 80.6 °F 84.6 °F 71.6 °F 74% 29.98 in 10.0 mi Calm Calm - N/A   Clear
9:35 PM 78.8 °F - 71.6 °F 78% 29.98 in 10.0 mi Calm Calm - N/A   Clear
9:55 PM 77.0 °F - 73.4 °F 89% 29.98 in 10.0 mi SW 4.6 mph - N/A   Clear
10:15 PM 77.0 °F - 71.6 °F 83% 29.99 in 10.0 mi Calm Calm - N/A   Clear
10:35 PM 77.0 °F - 71.6 °F 83% 29.99 in 10.0 mi Calm Calm - N/A   Clear
10:55 PM 77.0 °F - 71.6 °F 83% 29.99 in 7.0 mi Calm Calm - N/A   Clear
11:15 PM 77.0 °F - 71.6 °F 83% 29.99 in 10.0 mi Calm Calm - N/A   Clear
11:35 PM 75.2 °F - 71.6 °F 89% 29.99 in 7.0 mi Calm Calm - N/A   Clear
11:55 PM 75.2 °F - 71.6 °F 89% 29.99 in 7.0 mi Calm Calm - N/A   Clear